Flag for Germany Weather past 2 weeks in Eberswalde, Brandenburg, Germany

Now
91 °F

Passing clouds.


Feels Like: 89 °F
Forecast: 71 / 94 °F
Wind: 10 mph from Southeast

Location: Berlin-Tegel

Current Time: Jul 3, 2015 at 3:01:15 PM

Latest Report: Jul 3, 2015 at 2:20 PM


Visibility: N/A

Pressure: 30.21 "Hg

Humidity: 28%

Dew point: 54 °F

Location of EberswaldeLocation

Historic Weather in Eberswalde — Graph

°F

Eberswalde temperature yesterday

Maximum temperature yesterday: 86 °F (at 3:20 PM)
Minimum temperature yesterday: 63 °F (at 3:20 AM)
Average temperature yesterday: 75 °F

Past Weeks' High & Low Weather Summary

 TemperatureHumidityPressure
High90 °F (Jul 3, 12:50 PM)100% (Jun 23, 10:50 AM)30.27 "Hg (Jun 23, 10:50 AM)
Low48 °F (Jun 24, 4:50 AM)27% (Jul 2, 3:50 PM)29.59 "Hg (Jun 23, 1:20 AM)
Average63 °F67%30.03 "Hg
* Reported Jun 18 1:20 PM — Jul 3 1:50 PM, Eberswalde, Weather by CustomWeather, © 2015

Note: Actual official high and low records may vary slightly from our data, if they occured in-between our weather recording intervals... More about our weather records

Advertising

Eberswalde weather history for previous 24 hours

 ConditionsComfort  
Time TempWeatherWind HumidityBarometerVisibility
1:50 PM
Fri, Jul 3
90 °FPassing clouds.10 mph27%30.21 "HgN/A
1:20 PM90 °FPassing clouds.9 mph27%30.24 "HgN/A
12:50 PM90 °FPassing clouds.7 mph29%30.24 "HgN/A
12:20 PM86 °FPassing clouds.7 mph31%30.27 "HgN/A
11:50 AM86 °FPassing clouds.7 mph31%30.27 "HgN/A
11:20 AM84 °FPassing clouds.7 mph33%30.27 "HgN/A
10:50 AM82 °FPassing clouds.7 mph35%30.27 "HgN/A
10:20 AM81 °FPassing clouds.9 mph39%30.27 "HgN/A
9:50 AM79 °FPassing clouds.10 mph42%30.27 "HgN/A
9:20 AM79 °FPassing clouds.9 mph42%30.27 "HgN/A
8:50 AM77 °FPassing clouds.9 mph44%30.24 "HgN/A
8:20 AM75 °FSunny.9 mph47%30.24 "Hg10 mi
7:50 AM72 °FSunny.9 mph53%30.27 "Hg10 mi
7:20 AM72 °FPassing clouds.9 mph53%30.27 "HgN/A
6:50 AM70 °FPassing clouds.8 mph53%30.27 "HgN/A
6:20 AM70 °FSunny.9 mph53%30.24 "Hg10 mi
5:50 AM68 °FPassing clouds.6 mph56%30.24 "HgN/A
5:20 AM68 °FPassing clouds.5 mph56%30.24 "HgN/A
4:50 AM68 °FPassing clouds.6 mph53%30.24 "HgN/A
4:20 AM68 °FClear.7 mph53%30.24 "Hg10 mi
3:50 AM70 °FPassing clouds.8 mph50%30.24 "HgN/A
3:20 AM70 °FClear.9 mph50%30.27 "Hg10 mi
2:50 AM70 °FClear.9 mph50%30.27 "Hg10 mi
2:20 AM72 °FPassing clouds.9 mph47%30.27 "HgN/A
1:50 AM72 °FClear.9 mph44%30.27 "Hg10 mi
1:20 AM72 °FPassing clouds.12 mph44%30.24 "HgN/A
12:50 AM73 °FPassing clouds.12 mph41%30.24 "HgN/A
12:20 AM73 °FPassing clouds.12 mph41%30.24 "HgN/A
11:50 PM
Thu, Jul 2
75 °FClear.9 mph41%30.24 "Hg10 mi
11:20 PM75 °FPassing clouds.7 mph41%30.24 "HgN/A
10:50 PM75 °FClear.8 mph41%30.24 "Hg10 mi
10:20 PM75 °FPassing clouds.7 mph41%30.24 "HgN/A
9:50 PM77 °FPassing clouds.8 mph36%30.24 "HgN/A
9:20 PM79 °FPassing clouds.9 mph34%30.24 "HgN/A
8:50 PM81 °FPassing clouds.9 mph32%30.21 "HgN/A
8:20 PM82 °FPassing clouds.9 mph30%30.21 "HgN/A
7:50 PM82 °FPassing clouds.12 mph32%30.21 "HgN/A
7:20 PM84 °FPassing clouds.12 mph31%30.21 "HgN/A
6:50 PM84 °FPassing clouds.12 mph31%30.21 "HgN/A
6:20 PM84 °FPassing clouds.10 mph31%30.21 "HgN/A
5:50 PM86 °FPassing clouds.13 mph29%30.21 "HgN/A
5:20 PM86 °FPassing clouds.14 mph29%30.21 "HgN/A
4:50 PM86 °FPassing clouds.13 mph29%30.21 "HgN/A
4:20 PM86 °FPassing clouds.12 mph29%30.21 "HgN/A
3:50 PM86 °FPassing clouds.15 mph27%30.24 "HgN/A
3:20 PM86 °FPassing clouds.12 mph29%30.24 "HgN/A
Weather by CustomWeather, © 2015

See weather overviewHow to use our weather pages